Regional Weather Roundup
Issued by NWS

Home | Current Version | Previous Version | Graphics & Text | Print | Product List | Glossary On
Versions: 1 2 3 4 5 6 7 8 9 10 11 12 13 14 15 16 17 18 19 20 21 22 23 24 25 26 27 28 29 30 31 32 33 34 35 36 37 38 39 40 41 42 43 44 45 46 47 48 49 50
000
ASUS43 KMPX 061701
RWRMN
WEATHER ROUNDUP FOR MINNESOTA
NATIONAL WEATHER SERVICE TWIN CITIES/CHANHASSEN MN
1200 PM CDT FRI MAY 06 2016


NOTE: "FAIR" INDICATES FEW OR NO CLOUDS BELOW 12,000 FEET WITH NO
SIGNIFICANT WEATHER AND/OR OBSTRUCTIONS TO VISIBILITY. N/A MEANS
CURRENT SKY AND/OR WEATHER CONDITIONS ARE NOT AVAILABLE.

MNZ060>063-068>070-061800-
   Twin Cities Metro

CITY           SKY/WX    TMP DP  RH WIND       PRES   REMARKS
TWIN CITIES    MOSUNNY   82  49  31 W13G21    29.82F
ST PAUL        SUNNY     81  53  37 SW8       29.82F
CRYSTAL        SUNNY     82  49  31 SW15      29.81F
BLAINE         SUNNY     81  52  36 SW9       29.82S
EDEN PRAIRIE   SUNNY     84  50  30 S13G18    29.82F
SOUTH ST PAUL  SUNNY     83  48  30 SW9       29.81F
LAKE ELMO      FAIR      81  54  39 SW10      29.83F
$$
MNZ001>005-007-008-013>017-022>024-027-028-061800-
   Northwest Minnesota

CITY           SKY/WX    TMP DP  RH WIND       PRES   REMARKS
BEMIDJI        PTSUNNY   83  48  29 W13G21    29.73R
HALLOCK        CLOUDY    64  36  34 N24G35    29.84R
ROSEAU         PTSUNNY   72  46  40 NW22      29.77R
WARROAD        CLOUDY    68  50  52 NW20G25   29.77R
THIEF RVR FALL CLOUDY    70  45  40 N16       29.78R
CROOKSTON      CLOUDY    68  45  42 N22G31    29.80R
FOSSTON        SUNNY     77  45  31 NW13      29.76S
DETROIT LAKES  MOSUNNY   81  50  34 W8        29.78S
MOORHEAD       CLOUDY    82  48  30 N8        29.75F
PARK RAPIDS    MOSUNNY   84  49  29 W9        29.74F
MAHNOMEN       FAIR      79  49  34 W12       29.75S
$$
MNZ006-009>011-018-025>026-061800-
   North Central Minnesota

CITY           SKY/WX    TMP DP  RH WIND       PRES   REMARKS
BAUDETTE       MOSUNNY   76  45  33 NW24G30   29.70R
FLAG ISLAND    CLOUDY    63  46  55 NW25      29.72R
INTL FALLS     SUNNY     82  47  29 W14       29.65S
WASKISH        PTSUNNY   73  52  46 SW12      29.71R
BIG FORK       CLOUDY    84  45  24 SW10G18   29.68F
LONGVILLE      PTSUNNY   84  46  26 S8        29.73F
GRAND RAPIDS   SUNNY     84  46  26 W10G17    29.73F
CRANE LAKE     CLOUDY    84  43  23 W9        29.66S
ORR            CLOUDY    84  39  20 SW9G17    29.65S
COOK           MOSUNNY   82  46  28 SW10G17   29.68F
WALKER         FAIR      84  49  29 SW10      29.72F
$$
MNZ012-019>021-037-061800-
   Northeast Minnesota

CITY           SKY/WX    TMP DP  RH WIND       PRES   REMARKS
DULUTH         SUNNY     88  42  20 SW18G26   29.73F
ELY            SUNNY     88  43  20 SW14G31   29.67F
HIBBING        SUNNY     85  43  22 W14G23    29.70F
EVELETH        SUNNY     86  41  20 W14G23    29.71F
DULUTH HARBOR  SUNNY     86  43  22 SW15G22   29.70F
TWO HARBORS    SUNNY     90  54  29 W20G26    29.69F
SILVER BAY     SUNNY     90  37  15 SW7G16    29.67F
GRAND MARAIS     N/A     46  36  68 E6        29.70F
G MARAIS ARPRT MOSUNNY   79  41  25 S7        29.72F
$$
MNZ029>031-032-039>041-046>048-054>057-064-061800-
   West Central Minnesota

CITY           SKY/WX    TMP DP  RH WIND       PRES   REMARKS
FERGUS FALLS   SUNNY     79  54  41 NW5       29.73S
WHEATON        MOSUNNY   82  55  39 NW10      29.78S
MORRIS         SUNNY     81  52  36 W8        29.76F
ALEXANDRIA     SUNNY     78  51  38 W10       29.79S
ELBOW LAKE     FAIR      78  53  40 CALM      29.77S
WADENA         SUNNY     81  52  36 W12       29.76S
GLENWOOD       SUNNY     81  52  36 SW10G16   29.79S
APPLETON       SUNNY     82  48  30 W14G21    29.76S
BENSON         SUNNY     81  48  32 W15G22    29.77F
ORTONVILLE     SUNNY     81  52  36 NW12G17   29.77S
MADISON        SUNNY     82  48  30 W17G25    29.77S
WILLMAR        FAIR      84  50  30 W21       29.79F
$$
MNZ033>034-036-042>043-049>051-058-059-061800-
   Central Minnesota

CITY           SKY/WX    TMP DP  RH WIND       PRES   REMARKS
ST CLOUD       SUNNY     83  50  31 S14G24    29.77F
SAUK CENTRE      N/A     80  52  38 SW13G18   29.78F
PAYNESVILLE    MOSUNNY   82  47  29 S12G20    29.79F
AITKIN         SUNNY     88  39  18 S9        29.73F
PINE RIVER     MOSUNNY   82  54  36 S9        29.77F
BRAINERD       SUNNY     84  49  29 SW13G21   29.75F
STAPLES        SUNNY     82  48  30 SW6       29.75F
LONG PRAIRIE   FAIR      79  52  38 SW10      29.78F
LITTLE FALLS   SUNNY     81  46  30 SW6       29.77S
LITCHFIELD     SUNNY     84  48  28 W12G18    29.78F
BUFFALO        SUNNY     82  48  31 S10       29.81F
MAPLE LAKE     SUNNY     83  53  35 S10       29.81F
HUTCHINSON     CLOUDY    85  52  31 SW12G23   29.81F
$$
MNZ037-044-045-052-053-061800-
   East Central Minnesota

CITY           SKY/WX    TMP DP  RH WIND       PRES   REMARKS
PRINCETON      SUNNY     84  52  32 S9        29.78F
MORA           SUNNY     79  50  36 SW9       29.79F
CAMBRIDGE        N/A     84  59  42 SW9       29.77F
RUSH CITY      SUNNY     82  50  32 SW8       29.79F
MOOSE LAKE     SUNNY     88  50  27 SW10      29.72F
HINCKLEY       CLOUDY    82  54  36 SW10      29.77F
CLOQUET        SUNNY     88  37  16 SW16G24   29.73F
MCGREGOR       SUNNY     82  50  32 SW12G17   29.74F
$$
MNZ071>073-080-081-089-090-097-098-061800-
   Southwest Minnesota

CITY           SKY/WX    TMP DP  RH WIND       PRES   REMARKS
MONTEVIDEO     SUNNY     84  52  32 NW15G22   29.79S
GRANITE FALLS  SUNNY     88  51  28 W21       29.80F
CANBY          SUNNY     82  54  36 SW18G26   29.79R
MARSHALL       SUNNY     84  51  31 W33G41    29.77F
REDWOOD FALLS  SUNNY     85  48  27 SW28G38   29.79F
OLIVIA         MOSUNNY   81  46  30 SW24G31   29.78F
PIPESTONE      SUNNY     81  48  32 W20       29.87S
WINDOM         SUNNY     82  46  28 SW20G29   29.87S
WORTHINGTON    SUNNY     79  50  36 SW26G33   29.88F
JACKSON        SUNNY     81  37  21 SW22G29   29.90S
TRACY          SUNNY     83  51  33 SW20G35   29.83F
SLAYTON        SUNNY     78  47  34 SW26G35   29.87S
$$
MNZ065>067-074>077-082>085-091>093-061800-
   South Central Minnesota

CITY           SKY/WX    TMP DP  RH WIND       PRES   REMARKS
MANKATO        SUNNY     84  46  26 SW22      29.85F
ST JAMES       SUNNY     77  41  27 SW25G35   29.85F
FAIRMONT       SUNNY     81  45  28 SW22G32   29.88F
GLENCOE        SUNNY     84  52  32 S13G21    29.81F
FARIBAULT      SUNNY     84  48  28 SW12G22   29.86F
OWATONNA       SUNNY     84  43  23 SW21G28   29.87F
WASECA         SUNNY     82  45  26 SW24G30   29.88F
ALBERT LEA     SUNNY     84  39  20 SW16G22   29.89F
$$
MNZ078>079-086>088-094>096-061800-
   Southeast Minnesota

CITY           SKY/WX    TMP DP  RH WIND       PRES   REMARKS
ROCHESTER      SUNNY     85  43  22 W20G30    29.89F
RED WING       SUNNY     88  46  23 W13       29.82F
STANTON        SUNNY     85  48  27 SW18G24   29.82F
DODGE CENTER   SUNNY     82  43  24 W20G28    29.88F
WINONA         SUNNY     82  43  24 NW8       29.86F
AUSTIN         SUNNY     82  41  23 W14G24    29.89F
PRESTON        SUNNY     81  42  25 W20G28    29.91F
$$
ABBREVIATIONS USED IN REMARKS
   TC - TEMPERATURES IN CELSIUS
  WCI - WIND CHILL INDEX
   HX - HEAT INDEX
  VSB - VISIBILITY
$$




USA.gov is the U.S. government's official web portal to all federal, state and local government web resources and services.